8,
Avoca, PA
on Sunday, October 14, 2012

Sunday
Previous Day Next Day
Daily Summary
 ActualAverageRecord
Temperature
Mean Temperature °F 51°F  
Max Temperature 70°F 61°F 84°F (1954)
Min Temperature 47°F 41°F 29°F (1991)
Degree Days
Heating Degree Days 6 14  
Month to date heating degree days 159 161  
Since 1 July heating degree days 276 323  
Cooling Degree Days 0 0  
Month to date cooling degree days 3 0  
Year to date cooling degree days 864 576  
Growing Degree Days8 (Base °F )  
Moisture
Dew Point 44°F   
Average Humidity 58    
Maximum Humidity 68    
Minimum Humidity 47    
Precipitation
Precipitation 0.00 in 0.11 in 1.31 in (2011)
Month to date precipitation 1.06 1.62  
Year to date precipitation 28.41 30.72  
Wind
Wind Speed 7 mph   
Max Wind Speed 16 mph   
Max Gust Speed 29 mph   
Visibility 10 miles   
Events     

Key: T is trace of precipitation, MM is missing value
Source: NWS Daily Summary
Time(EDT)TemperatureDew PointHumidity Pressure Visibility Wind DirectionWind SpeedGust SpeedPrecipitationEvents Conditions
1:54 AM 48.0°F 30.0°F 50% 30.19 in 10.0 miles SSW 10.4 mph - N/A   Mostly Cloudy
2:54 AM 48.0°F 32.0°F 54% 30.16 in 10.0 miles SSW 9.2 mph 17.3 mph N/A   Overcast
3:54 AM 50.0°F 34.0°F 54% 30.14 in 10.0 miles SSW 12.7 mph 20.7 mph N/A   Overcast
4:54 AM 50.0°F 36.0°F 59% 30.14 in 10.0 miles SSW 6.9 mph - N/A   Overcast
5:54 AM 51.1°F 39.0°F 63% 30.14 in 10.0 miles SSW 5.8 mph - N/A   Overcast
6:54 AM 51.1°F 39.9°F 66% 30.13 in 10.0 miles SSW 3.5 mph - N/A   Overcast
7:54 AM 51.1°F 39.9°F 66% 30.14 in 10.0 miles Variable 3.5 mph - N/A   Overcast
8:54 AM 52.0°F 41.0°F 66% 30.14 in 10.0 miles Calm Calm - N/A   Overcast
9:54 AM 55.0°F 43.0°F 64% 30.13 in 10.0 miles West 4.6 mph - N/A   Overcast
10:54 AM 55.9°F 44.1°F 64% 30.12 in 10.0 miles SSW 5.8 mph - N/A   Overcast
11:54 AM 59.0°F 45.0°F 60% 30.10 in 10.0 miles SW 6.9 mph - N/A   Overcast
12:54 PM 63.0°F 46.0°F 54% 30.07 in 10.0 miles WNW 4.6 mph - N/A   Mostly Cloudy
1:54 PM 69.1°F 48.9°F 49% 30.02 in 10.0 miles Variable 5.8 mph - N/A   Clear
2:54 PM 68.0°F 48.0°F 49% 30.00 in 10.0 miles South 9.2 mph 18.4 mph N/A   Clear
3:54 PM 69.1°F 48.9°F 49% 29.98 in 10.0 miles Variable 6.9 mph 18.4 mph N/A   Clear
4:54 PM 66.9°F 48.0°F 51% 29.96 in 10.0 miles South 8.1 mph 20.7 mph N/A   Clear
5:54 PM 64.0°F 48.0°F 56% 29.96 in 10.0 miles SW 9.2 mph - N/A   Clear
6:54 PM 62.1°F 48.9°F 62% 29.94 in 10.0 miles Calm Calm - N/A   Clear
7:54 PM 62.1°F 50.0°F 65% 29.94 in 10.0 miles Variable 4.6 mph - N/A   Clear
8:54 PM 61.0°F 48.9°F 64% 29.94 in 10.0 miles WSW 5.8 mph - N/A   Clear
9:54 PM 61.0°F 48.0°F 62% 29.92 in 10.0 miles South 6.9 mph - N/A   Clear
10:54 PM 60.1°F 48.0°F 64% 29.90 in 10.0 miles SW 6.9 mph - N/A   Clear
11:54 PM 61.0°F 48.9°F 64% 29.86 in 10.0 miles South 11.5 mph 21.9 mph N/A   Clear
Astronomy
Sunrise:07:14 AM (EDT) Moon Rise:06:10 AM (EDT)10/14
Sunset:06:22 PM (EDT) Moon Set:05:41 PM (EDT)10/14
Moon Phase
Oct. 14 Oct. 15 Oct. 21 Oct. 29 Nov. 06

Copyright © 2014 The Weather Underground, Inc.
8,